This is the latest recevied weather packets stored in our database for station/object AK4NG. If no packets are shown the sender has not sent any weather packets the latest 10 day(s).
| Time | Temp. | Humidity | Pressure | Rain* | Wind** | Luminosity | Snow |
|---|---|---|---|---|---|---|---|
| 1778131679 | 21.67° C | 97% | 1014.4 hPa | 8.89 mm | - | 0 W/m² | - |
| 1778131374 | 21.67° C | 97% | 1013.9 hPa | 7.11 mm | - | 0 W/m² | - |
| 1778131073 | 21.67° C | 97% | 1014 hPa | 3.05 mm | - | 0 W/m² | - |
| 1778130769 | 21.67° C | 96% | 1013.9 hPa | 6.6 mm | - | 0 W/m² | - |
| 1778130467 | 21.67° C | 96% | 1013.1 hPa | 4.83 mm | - | 0 W/m² | - |
| 1778130163 | 21.67° C | 96% | 1013.3 hPa | 1.78 mm | - | 0 W/m² | - |
| 1778129860 | 21.67° C | 96% | 1013.1 hPa | 0 mm | - | 0 W/m² | - |
| 1778129556 | 21.67° C | 96% | 1013.1 hPa | 0 mm | - | 0 W/m² | - |
| 1778129253 | 21.67° C | 96% | 1013 hPa | 0 mm | - | 0 W/m² | - |
| 1778128950 | 21.67° C | 96% | 1013.3 hPa | 0 mm | - | 0 W/m² | - |
| 1778128646 | 22.22° C | 96% | 1013 hPa | 0 mm | - | 0 W/m² | - |
| 1778128343 | 22.22° C | 96% | 1012.9 hPa | 1.27 mm | - | 0 W/m² | - |
| 1778128039 | 22.22° C | 96% | 1013.1 hPa | 1.27 mm | - | 0 W/m² | - |
| 1778127734 | 22.22° C | 96% | 1013.1 hPa | 0 mm | - | 0 W/m² | - |
| 1778127432 | 22.22° C | 95% | 1012.8 hPa | 0 mm | - | 0 W/m² | - |
| 1778127128 | 22.22° C | 95% | 1012.8 hPa | 1.78 mm | - | 0 W/m² | - |
| 1778126825 | 22.22° C | 95% | 1013.2 hPa | 1.78 mm | - | 0 W/m² | - |
| 1778126521 | 22.22° C | 95% | 1013.2 hPa | 0 mm | - | 0 W/m² | - |
| 1778126217 | 22.22° C | 95% | 1013.6 hPa | 0 mm | - | 0 W/m² | - |
| 1778125913 | 22.22° C | 94% | 1013.7 hPa | 0 mm | - | 0 W/m² | - |
| 1778125610 | 22.22° C | 94% | 1013.7 hPa | 0 mm | - | 0 W/m² | - |
| 1778125308 | 22.22° C | 94% | 1013.8 hPa | 0 mm | - | 0 W/m² | - |
| 1778125007 | 22.22° C | 94% | 1013.5 hPa | 0 mm | - | 0 W/m² | - |
| 1778124703 | 22.22° C | 94% | 1013.8 hPa | 0 mm | - | 0 W/m² | - |
| 1778124401 | 22.78° C | 94% | 1013.3 hPa | 0 mm | - | 0 W/m² | - |
* Rain latest hour (hover to see other rain measurements)
** Current wind speed in m/s (hover to see current wind gust speed)